Weather in Katen

Russia / Khabarovsk Krai     47°13′11″N   136°07′24″E
temp.,
°C
wind,
m/s
gust,
m/s
humid.,
%
clouds,
%
prec.,
mm/h
press.,
hPa
HPBL,
m
27 february, sat
sat2701:00−23sw1110049 0.0 103520
04:00−23se129927 0.0 103620
07:00−24sse22985 0.0 103720
10:00−17s23894 0.0 1035194
13:00−9s237419 0.0 1033488
16:00−7sse247445 0.0 1028500
19:00−11sse2289100 0.0 102638
22:00−10s3690100 0.0 1024139
28 february, sun
sun2801:00−8s51679100 0.0 1022573
04:00−8ssw51884100 0.0 1020680
07:00−7ssw41695100 0.3 1019784
10:00−5sw41294100 1.8 1018710
13:00−2wsw4894100 1.4 1019678
16:00−5wnw4892100 3.1 1020796
19:00−10wnw3790100 0.5 1023445
22:00−13wnw2890100 0.5 1025592
1 march, mon
mon101:00−16w2792100 0.0 1026255
04:00−21w129583 0.0 102921
07:00−23wsw12960 0.0 103120
10:00−18wsw25820 0.0 1032568
13:00−15wnw46702 0.0 10321029
16:00−15wnw47661 0.0 10321189
19:00−21nw12890 0.0 103320
22:00−24s118726 0.0 103520
2 march, tue
tue201:00−25sse12891 0.0 103420
04:00−25sse228918 0.0 103419
07:00−24sse129191 0.0 103422
10:00−17wsw018174 0.0 1032244
13:00−15nnw347556 0.0 1030951
16:00−15nnw357329 0.0 1029948
19:00−21nnw22940 0.0 103020
22:00−25n11980 0.0 103320
3 march, wed
wed301:00−26ene11980 0.0 103219
04:00−27ese11960 0.0 103119
07:00−27sse12920 0.0 103219
10:00−19sse23780 0.0 1030211
13:00−11s24660 0.0 1025495
16:00−8s376636 0.0 1022678
19:00−11s2389100 0.0 102175
22:00−12s3689100 0.0 1020163